STARLINK-33704, 63650

Orbit data source: Space-Track

STARLINK-33704, 63650 is a payload satellite owned by SpaceX/Seattle (US) in LEO that was launched on Fri, 25 Apr 2025 UTC via an FALCON 9 launch vehicle from the Air Force Eastern Test Range (AFETR). Payload-class satellites include a variety of spacecraft equipped with specific instruments for various scientific and technological missions. These include communications satellites like Starlink; space stations such as the ISS; scientific satellites like the Hubble; Earth observation satellites from companies like Planet Labs, Umbra, and HawkEye 360; GPS; miniature CubeSats for education and research; and military/defense satellites.

Loading next visibility...
Identifier
63650, 2025-083S
Orbit
LEO
Country
Flag of USUS
Related business
Manufacturer
SpaceX/Seattle
Mission
Operational Commercial Communications
Bus & Motor
STARLINK V2MO, Unknown motor
Mass
575 kg wet, ~530 kg dry
Launch date (UTC)
2025-04-25 (1 year ago)
Launch vehicle
FALCON 9
Launch site
Air Force Eastern Test Range (AFETR)
Object type
Payload
Rocket body
Debris
Shape & HBR
Box + 2 Pan, 17.7 m
Radar Cross Section
36.964 m², Large (>1 m²)

Expand to show TLE details & history
Last TLE update: 15 hours ago

TLE from 15 hours ago
0 STARLINK-33704
1 63650U 25083S   26171.25664816  .00006971  00000-0  26267-3 0  9992
2 63650  43.0020 145.9216 0001556 274.8064  85.2610 15.27573652 65755
Epoch: 2026-06-20T06:09Z
TLE epoch observation values (Epoch: 2026-06-20T06:09:34.401Z)
Latitude
Longitude
145.05439°
Altitude
482.756 km
Speed
7.626 km/s
True Right ascension
09h 43m 41s
True Declination
0° 00' 00"
Sunlit
Object was in daylight at epoch
Visualization orbit readout
Latitude
Unknown
Longitude
Unknown
Altitude
Unknown
Speed
Unknown
Apparent Right ascension
Unknown
Apparent Declination
Unknown
Sunlit
N/A
Visualization observer readout
Local Sidereal Time
08:33:22
Azimuth
Unknown
Elevation
Unknown
Doppler factor
Unknown
Orbital elements
Apogee altitude
486.081 km
Perigee altitude
483.945 km
Semi-major axis
6,863.15 km
Eccentricity
0.00016
Inclination
43.002°
RAAN
145.9216°
Arg. of periapsis
274.8064°
True anomaly
85.27877°
Mean anomaly
85.261°
Eccentric anomaly
85.26988°
Mean motion
3.81731 °/min
Orbital period
94.31 mins
BSTAR
0.00026267
Loading maneuver chart data...
Computing Atmospheric mass density...
Loading historical data...
Loading historical data...
Loading historical data...
Loading historical data...
Loading historical data...
Loading historical data...
Loading historical data...

Documentation

Showing up to 5 results
|